Theta_e
303 302 302 306 305 307 307 308 309 309 309 309 309 309 308 309 310 316 316 312 312 308 308 310 315 315 317 311 309 306 305 307 310 313 313 311 312 314 315 314 315 315 316 332 360
303 303 302 303 306 307 308 308 308 309 309 309 309 308 309 309 315 317 315 309 309 309 311 315 314 313 309 310 308 305 302 306 310 310 310 310 311 312 313 313 314 314 315 319 330
303 302 302 302 306 307 308 308 308 309 310 309 309 309 309 310 317 313 309 309 309 312 315 315 316 313 312 309 309 308 306 306 307 307 308 309 309 310 311 311 312 313 313 316 325
303 302 301 302 302 307 308 308 309 309 310 310 309 310 310 317 318 313 310 313 315 315 316 316 310 311 310 310 310 311 310 309 308 308 308 308 310 310 310 310 311 312 313 315 318
304 302 302 302 302 305 308 308 309 309 310 310 309 309 314 319 320 313 313 313 314 314 316 314 311 310 311 310 310 312 311 311 311 309 309 310 310 310 310 311 312 311 312 313 316
304 302 302 302 302 304 307 308 308 309 310 311 310 310 317 316 316 314 313 314 314 315 314 314 313 313 312 311 311 310 312 312 311 310 310 312 311 310 312 312 311 311 311 311 313
305 302 305 306 303 306 308 308 308 308 309 312 311 313 315 311 315 314 314 314 314 314 313 315 315 314 312 311 311 312 312 312 312 312 311 311 311 312 312 310 310 310 311 311 311
306 302 308 307 306 307 308 308 308 308 309 313 312 315 314 315 316 315 314 314 314 314 314 315 315 314 313 311 312 312 311 312 311 313 313 311 312 312 311 310 312 311 310 311 311
311 303 308 308 308 308 309 309 311 314 312 313 317 317 319 318 314 316 315 314 314 314 313 314 314 314 314 314 312 312 313 314 314 313 313 311 313 312 311 310 311 311 309 310 310
316 308 307 309 309 309 310 311 314 314 318 317 317 317 316 317 316 316 316 315 312 312 313 313 311 314 311 312 318 316 315 314 315 315 315 315 315 314 311 310 310 311 309 310 312
316 313 305 308 308 308 311 312 307 309 318 315 314 318 315 315 315 314 315 314 314 314 314 313 312 313 314 314 316 317 317 318 317 317 316 316 316 316 313 311 308 307 309 308 310
317 314 305 307 308 310 312 312 313 312 311 312 313 313 314 314 314 313 314 314 314 313 312 312 314 314 314 315 316 317 318 319 318 317 317 317 317 317 313 313 311 311 311 309 310
316 315 306 306 311 313 314 314 314 314 311 314 316 316 315 314 313 313 314 314 314 314 314 313 314 314 314 315 316 315 316 316 316 316 316 317 319 318 317 314 313 313 311 310 311
316 315 309 306 312 311 313 313 316 315 318 319 319 314 311 310 314 315 314 314 314 314 314 314 313 315 316 315 315 316 315 316 317 316 318 320 322 319 318 318 315 315 312 311 311
317 314 309 307 311 311 312 311 316 317 315 314 311 312 310 312 313 316 314 314 314 316 314 317 316 315 316 316 321 322 320 319 318 317 315 318 324 319 318 319 317 316 315 313 311
316 313 309 310 311 312 313 312 315 320 317 313 310 311 312 312 313 314 313 312 315 319 319 315 314 317 318 321 320 318 318 319 320 318 323 319 320 318 317 317 317 316 314 314 313
315 314 310 308 310 313 313 313 318 314 312 311 310 311 312 312 312 314 314 313 315 314 316 316 318 317 319 318 316 315 317 320 324 322 324 319 320 319 317 317 316 316 315 315 314
316 316 316 315 314 314 315 315 318 314 312 312 312 311 312 312 312 314 314 315 317 317 312 320 317 315 316 315 315 314 315 315 322 317 319 320 324 321 316 316 316 316 315 313 313
316 317 317 314 312 314 312 317 313 315 314 314 313 313 312 312 313 312 312 315 316 317 315 320 318 315 315 315 315 312 314 315 320 319 321 317 316 315 314 314 316 315 315 314 313
313 316 317 315 313 314 312 317 316 316 316 313 313 313 312 312 312 311 314 316 317 318 315 318 319 316 315 313 313 313 314 315 321 324 324 317 316 315 317 318 317 316 315 314 313
313 314 317 319 315 310 313 314 316 317 317 315 313 312 312 312 311 312 315 314 314 318 315 316 316 317 316 315 313 313 314 319 320 321 320 321 317 312 315 316 315 314 316 314 312
309 316 318 317 315 312 315 317 317 320 319 312 312 311 311 310 311 312 313 313 314 317 316 314 316 318 317 314 312 312 315 317 322 323 322 319 320 314 312 314 313 314 314 312 313
307 310 317 317 316 315 316 319 320 321 316 314 312 311 310 311 310 311 312 314 314 315 315 314 314 317 314 311 313 318 317 319 321 322 322 323 320 314 315 315 315 315 314 316 313
307 316 312 310 312 316 317 319 321 319 318 315 314 311 310 311 309 311 315 314 313 316 319 314 313 319 318 316 312 314 314 315 317 319 318 319 320 319 318 318 317 316 315 315 314
310 314 314 314 315 315 315 318 319 320 318 314 311 313 313 313 313 316 314 313 313 318 314 312 315 316 316 315 315 315 316 316 316 317 319 319 320 317 316 316 311 310 312 315 317
312 315 314 314 313 315 315 317 319 319 318 316 317 313 310 314 315 315 314 314 314 315 315 312 316 317 317 314 315 316 316 312 313 313 314 314 314 311 312 310 310 309 308 310 315
313 311 312 311 313 315 315 317 317 317 317 317 317 311 311 314 310 312 313 312 312 318 315 315 315 317 315 314 315 318 313 309 309 309 309 311 309 309 309 307 307 306 306 308 310
Wind_Speed
27 25 23 22 18 15 15 16 18 18 19 18 18 18 19 20 17 3 1 1 1 6 10 13 10 11 6 3 2 3 2 2 4 4 6 10 8 8 5 7 6 8 7 17 27
27 24 23 21 17 14 13 15 18 20 19 20 18 18 18 17 10 3 1 1 4 7 5 7 6 12 3 3 2 3 3 6 6 6 9 9 7 17 9 10 4 14 16 25 20
27 25 22 19 16 13 13 15 17 19 19 19 18 17 16 11 2 1 2 3 6 6 6 7 11 2 3 4 3 3 6 9 12 13 11 11 8 5 6 5 5 9 11 8 3
28 26 21 18 15 12 12 14 16 18 19 19 16 19 12 4 3 3 2 5 6 7 10 6 4 3 3 4 3 4 7 7 9 10 5 7 4 8 7 5 6 6 9 7 10
31 28 23 18 15 11 11 13 15 18 18 18 15 19 5 4 5 6 3 3 2 6 6 4 6 6 5 6 8 3 5 10 8 8 7 4 7 6 13 7 6 10 4 9 9
35 30 25 19 14 10 11 13 14 16 17 17 14 12 3 2 4 5 2 4 5 6 5 3 1 4 2 5 3 6 14 15 7 10 6 5 8 6 20 17 5 10 7 6 10
39 31 24 19 13 10 12 14 15 14 15 15 12 5 2 7 4 5 6 12 11 12 5 5 3 4 2 9 6 12 12 15 9 6 7 5 11 14 18 11 13 10 17 6 9
42 30 22 17 13 12 14 16 16 13 11 10 7 3 5 7 8 12 13 18 20 21 21 16 10 4 3 3 8 7 5 5 6 5 8 6 17 25 12 11 19 11 13 14 6
44 33 20 16 15 17 18 18 16 10 6 4 2 3 8 9 6 20 20 16 12 15 12 12 5 5 2 2 5 3 5 9 10 4 9 7 18 12 11 11 17 15 9 13 10
46 36 19 16 17 19 20 19 13 5 4 2 2 3 6 3 8 11 15 21 9 6 2 4 2 2 3 4 8 6 7 7 8 13 15 13 18 13 8 9 15 17 13 9 12
46 38 20 16 16 19 21 8 6 4 2 6 6 4 13 17 17 9 15 8 4 2 4 5 2 7 13 13 17 16 18 21 20 17 10 18 21 18 9 8 9 9 10 8 10
48 40 22 16 19 16 13 1 4 4 8 9 13 13 25 20 8 12 17 5 5 8 5 4 7 14 14 15 16 20 21 23 24 20 18 16 24 20 6 8 8 11 13 10 6
48 44 23 16 14 7 12 9 4 4 2 7 4 4 4 3 7 10 3 3 7 5 6 7 11 12 13 12 13 13 12 14 19 9 9 13 30 17 16 8 9 11 9 9 13
50 45 21 17 3 13 8 8 8 5 4 6 1 2 8 7 3 15 15 9 8 7 7 11 7 11 14 16 13 19 11 17 20 15 12 7 21 19 9 19 17 16 13 11 14
52 38 14 11 10 7 14 16 6 3 4 9 6 4 9 7 5 8 14 6 7 7 4 7 16 15 10 8 4 7 14 12 7 9 8 11 8 27 11 16 16 17 15 13 13
54 27 7 4 8 11 20 20 1 5 3 4 3 10 9 7 12 5 4 3 1 3 3 12 16 5 6 3 3 5 6 8 4 4 10 8 13 28 12 14 17 15 12 13 12
53 16 5 6 5 15 19 4 5 5 7 8 7 8 10 11 21 8 10 12 0 5 7 13 6 5 4 4 2 2 3 4 3 0 9 4 12 20 8 10 13 14 17 18 14
46 11 7 9 11 13 9 5 7 8 2 4 6 9 4 11 11 8 16 13 1 3 2 3 9 5 2 10 8 10 8 4 5 3 7 1 7 6 10 13 17 16 13 11 11
36 12 5 9 4 4 5 5 2 5 6 5 4 5 3 9 5 8 13 7 4 4 2 4 8 16 20 22 4 5 3 6 6 12 9 4 7 10 15 13 11 15 8 9 10
19 11 8 18 6 4 5 3 4 5 10 3 4 3 8 11 8 8 5 7 4 3 7 6 14 11 11 7 10 10 5 1 2 4 5 5 7 8 5 4 6 8 5 8 9
7 4 24 23 5 5 3 5 5 14 15 5 5 5 7 8 5 4 6 17 8 7 11 6 7 11 9 7 6 2 2 3 3 4 4 4 5 7 8 7 8 8 9 9 9
9 3 17 23 5 2 3 6 10 11 14 4 4 4 5 8 5 8 12 8 12 2 2 2 4 7 10 22 11 10 10 8 5 5 5 4 14 6 9 5 6 8 8 6 8
5 3 10 10 4 4 6 9 5 12 8 5 4 5 5 5 9 6 12 3 9 5 5 6 4 5 7 5 5 0 1 6 9 4 10 6 9 3 5 8 9 9 9 11 7
2 4 4 4 2 1 4 7 6 10 6 6 15 5 8 11 7 8 5 6 8 10 9 8 2 6 7 12 9 18 19 14 11 6 14 19 29 15 13 7 9 12 14 14 11
2 2 1 4 6 10 6 8 12 8 4 7 4 8 15 11 5 4 17 22 14 2 4 4 5 6 13 20 21 22 23 7 6 7 8 17 19 13 13 9 8 12 13 14 14
2 2 3 4 7 6 6 4 9 13 14 8 9 14 11 3 4 19 18 17 6 3 3 3 5 8 14 20 16 18 8 2 5 9 13 18 23 11 9 11 13 15 13 14 17
5 3 1 4 4 6 4 9 19 17 11 16 16 12 7 5 15 17 17 15 8 5 6 2 4 4 8 12 20 7 7 2 10 11 14 17 18 9 16 21 21 22 15 13 16
Wind_Direction
2 358 357 356 360 4 4 2 0 357 354 348 344 340 342 340 344 29 254 274 289 329 322 322 4 344 296 247 254 90 47 299 279 307 269 309 314 307 281 314 321 349 348 350 162
358 356 354 355 356 357 357 356 357 357 353 349 346 344 346 339 341 270 269 191 350 359 351 7 326 352 357 240 254 122 140 231 217 248 273 280 282 299 323 324 322 331 353 6 6
359 355 350 349 348 347 348 348 351 353 350 348 351 348 345 339 346 335 145 40 28 360 344 306 289 243 297 20 268 236 211 245 268 255 252 266 281 262 294 302 293 305 320 332 119
358 353 346 341 338 335 338 341 346 349 348 346 352 352 349 24 137 193 94 51 21 348 333 335 349 30 339 330 292 278 249 247 271 270 290 273 250 286 238 253 271 296 298 305 318
359 355 347 339 334 329 330 333 340 346 346 344 342 350 16 13 249 177 109 78 356 333 301 329 13 0 355 302 336 239 323 317 296 274 252 283 295 258 284 241 303 308 342 302 296
3 357 352 347 340 332 329 329 332 338 343 341 346 350 22 329 222 166 128 223 262 273 278 359 317 309 276 321 340 304 312 305 309 305 299 302 288 342 282 287 309 299 280 250 282
4 359 357 356 353 342 333 333 331 326 336 340 351 24 32 238 220 222 222 276 275 251 250 245 261 69 321 320 299 307 316 316 302 292 282 350 307 264 270 301 286 274 284 240 254
6 1 360 2 357 342 335 333 325 318 319 327 3 49 256 269 285 247 246 267 266 267 250 249 230 199 183 277 332 313 312 322 280 322 280 126 267 267 268 262 270 262 270 280 216
6 2 358 359 350 341 339 332 324 319 306 312 20 51 282 312 234 235 240 247 256 280 271 262 180 200 321 9 349 316 262 272 293 284 265 180 262 284 268 249 262 266 245 272 278
4 360 353 349 344 338 341 336 331 79 70 46 292 330 280 264 260 241 242 238 253 276 298 210 77 196 342 87 263 260 278 277 277 300 301 287 277 282 265 250 252 261 251 261 278
1 358 349 343 338 336 336 329 7 0 154 213 217 244 282 277 279 263 249 243 269 223 224 254 157 233 245 223 241 255 262 269 268 282 280 289 284 283 272 267 260 258 267 233 259
1 358 345 339 333 332 337 343 268 275 313 240 237 241 252 267 283 264 262 201 192 223 255 346 257 247 247 253 246 249 258 269 271 270 264 272 278 286 259 259 252 258 265 264 250
357 357 344 335 336 2 325 285 327 338 15 299 251 234 254 222 257 288 155 211 229 250 256 230 254 276 272 282 286 277 281 289 285 289 269 289 277 271 273 252 253 253 251 257 253
355 353 344 337 9 343 315 354 358 39 59 316 283 2 6 320 311 57 22 21 22 329 289 271 280 248 270 269 278 282 292 291 290 292 287 187 281 263 267 267 249 250 249 249 251
354 349 341 338 313 312 333 332 303 59 60 316 15 42 312 14 298 14 40 2 326 303 331 286 312 288 264 262 355 300 310 299 304 298 295 234 267 276 223 256 250 251 250 245 247
352 350 341 333 316 328 332 326 131 44 351 16 68 343 3 354 356 316 5 45 358 327 259 290 291 244 274 67 92 23 357 312 241 153 259 203 218 267 258 258 251 241 237 244 239
350 359 330 291 292 331 333 20 46 69 337 346 341 335 320 358 345 1 358 343 287 4 332 327 319 324 68 348 302 35 7 319 296 230 255 187 241 262 270 291 263 246 238 244 243
350 357 337 297 322 322 345 49 63 357 63 296 323 312 348 358 330 352 342 325 117 194 294 322 325 357 323 303 281 263 184 183 271 238 294 68 246 252 222 246 265 245 239 235 245
352 3 336 336 302 311 63 50 226 323 323 298 319 286 258 328 294 333 321 279 246 171 184 296 270 302 293 283 251 276 162 226 251 261 256 236 274 284 256 260 282 272 224 233 258
345 337 314 330 282 66 67 266 321 295 309 260 280 271 310 323 320 328 308 259 278 152 155 235 291 286 304 327 263 201 190 336 186 255 247 255 243 235 283 278 305 315 281 262 271
4 16 2 0 120 51 108 241 290 318 318 275 253 262 261 292 286 280 256 292 287 207 199 188 213 279 301 220 224 325 201 179 210 230 262 288 245 217 214 225 260 270 266 275 287
350 355 1 8 50 17 350 316 311 315 318 318 277 257 267 299 286 302 279 280 302 252 255 270 260 272 259 273 278 256 262 238 238 223 221 261 264 201 193 247 299 293 302 290 280
340 274 350 20 60 327 300 309 290 326 316 330 294 260 288 278 314 267 296 274 309 164 204 187 229 293 318 351 18 101 155 231 239 237 239 265 264 326 345 331 336 339 346 327 325
12 354 333 20 100 290 312 291 314 315 304 345 301 352 325 306 275 282 296 290 296 275 296 145 247 229 255 279 287 286 282 276 266 248 268 249 275 268 285 317 325 321 319 317 309
62 294 128 311 318 315 294 291 333 334 237 309 320 328 317 309 319 260 304 313 316 40 70 154 241 234 247 266 276 271 272 267 277 266 266 284 272 298 291 288 299 302 304 311 311
44 14 340 278 293 300 330 303 321 317 328 301 318 318 307 276 250 307 306 307 288 55 182 186 273 258 276 278 271 271 223 245 277 273 266 264 270 298 322 312 306 305 305 302 301
337 351 123 256 280 309 276 328 310 316 308 328 308 315 298 273 310 281 276 277 228 204 186 247 298 294 287 299 305 277 149 336 285 292 276 270 273 321 318 307 296 291 285 282 287